TimeEST,TemperatureF,Dew PointF,Humidity,Sea Level PressureIn,VisibilityMPH,Wind Direction,Wind SpeedMPH,Gust SpeedMPH,PrecipitationIn,Events,Conditions,WindDirDegrees,DateUTC
12:14 AM,29.1,18.5,65,30.17,10.0,Calm,Calm,-,N/A,,Overcast,0,2013-02-07 05:14:00
12:34 AM,29.1,18.5,65,30.18,10.0,Calm,Calm,-,N/A,,Overcast,0,2013-02-07 05:34:00
12:55 AM,29.1,18.9,66,30.17,10.0,SE,3.5,-,N/A,,Overcast,140,2013-02-07 05:55:00
1:14 AM,28.8,19.6,69,30.15,5.0,SE,4.6,-,N/A,Snow,Light Snow,130,2013-02-07 06:14:00
1:34 AM,28.9,19.6,68,30.15,10.0,SSE,5.8,-,N/A,,Overcast,150,2013-02-07 06:34:00
1:54 AM,28.6,20.7,72,30.15,4.0,SSE,9.2,-,N/A,Snow,Light Snow,160,2013-02-07 06:54:00
2:14 AM,28.4,22.5,78,30.15,4.0,South,8.1,-,N/A,Snow,Light Snow,170,2013-02-07 07:14:00
2:34 AM,27.5,23.4,84,30.16,2.0,South,8.1,-,N/A,Snow,Light Snow,170,2013-02-07 07:34:00
2:54 AM,27.5,24.1,87,30.15,2.0,South,6.9,-,N/A,Snow,Light Snow,170,2013-02-07 07:54:00
3:14 AM,27.3,24.4,89,30.15,2.5,SSE,6.9,-,N/A,Snow,Light Snow,160,2013-02-07 08:14:00
3:34 AM,27.3,25.2,92,30.15,1.8,SSE,4.6,-,N/A,Snow,Light Snow,160,2013-02-07 08:34:00
3:54 AM,27.3,25.5,93,30.13,2.0,SSE,5.8,-,N/A,Snow,Light Snow,150,2013-02-07 08:54:00
4:14 AM,27.3,25.5,93,30.13,2.0,SSE,6.9,-,N/A,Snow,Light Snow,150,2013-02-07 09:14:00
4:34 AM,27.5,25.7,93,30.12,1.8,SSE,4.6,-,N/A,Snow,Light Snow,160,2013-02-07 09:34:00
4:54 AM,27.3,25.5,93,30.12,1.8,SSE,6.9,-,N/A,Snow,Light Snow,160,2013-02-07 09:54:00
5:14 AM,27.5,25.7,93,30.12,1.8,SSE,6.9,-,N/A,Snow,Light Snow,160,2013-02-07 10:14:00
5:34 AM,27.5,25.7,93,30.12,1.8,SSE,4.6,-,N/A,Snow,Light Snow,160,2013-02-07 10:34:00
5:54 AM,27.5,25.7,93,30.12,3.0,South,8.1,-,N/A,Snow,Light Snow,170,2013-02-07 10:54:00
6:14 AM,27.5,25.3,92,30.11,5.0,SSE,6.9,-,N/A,,Overcast,160,2013-02-07 11:14:00
6:34 AM,27.5,24.8,90,30.11,5.0,SSE,5.8,-,N/A,,Overcast,150,2013-02-07 11:34:00
7:14 AM,27.5,23.7,86,30.11,7.0,SSE,6.9,-,N/A,,Overcast,150,2013-02-07 12:14:00
7:35 AM,27.7,21.7,78,30.12,7.0,SSE,4.6,-,N/A,,Overcast,160,2013-02-07 12:35:00
7:54 AM,27.9,21.6,77,30.11,7.0,Calm,Calm,-,N/A,,Overcast,0,2013-02-07 12:54:00
8:14 AM,28.0,21.4,76,30.12,7.0,SE,3.5,-,N/A,,Overcast,140,2013-02-07 13:14:00
8:34 AM,28.4,21.4,75,30.12,7.0,SE,4.6,-,N/A,,Overcast,130,2013-02-07 13:34:00
8:54 AM,28.4,21.2,74,30.11,7.0,SE,4.6,-,N/A,,Overcast,130,2013-02-07 13:54:00
9:14 AM,28.8,21.2,73,30.11,7.0,Calm,Calm,-,N/A,,Overcast,0,2013-02-07 14:14:00
9:35 AM,29.1,21.0,72,30.11,10.0,SE,3.5,-,N/A,,Overcast,130,2013-02-07 14:35:00
9:54 AM,29.3,21.2,72,30.11,7.0,SE,8.1,-,N/A,,Overcast,140,2013-02-07 14:54:00
10:14 AM,29.7,21.7,72,30.11,4.0,SSE,6.9,-,N/A,Snow,Light Snow,150,2013-02-07 15:14:00
10:34 AM,29.3,23.2,78,30.10,1.2,SE,3.5,-,N/A,Snow,Light Snow,130,2013-02-07 15:34:00
10:54 AM,28.9,24.3,83,30.10,1.0,ESE,8.1,-,N/A,Snow,Light Snow,120,2013-02-07 15:54:00
11:14 AM,29.3,24.6,83,30.09,1.2,SE,5.8,-,N/A,Snow,Light Snow,130,2013-02-07 16:14:00
11:34 AM,30.2,24.8,80,30.08,3.0,ESE,6.9,-,N/A,Snow,Light Snow,120,2013-02-07 16:34:00
11:54 AM,30.4,24.1,77,30.08,4.0,SE,5.8,-,N/A,Snow,Light Snow,140,2013-02-07 16:54:00
12:14 PM,30.2,24.1,78,30.08,2.0,SE,6.9,-,N/A,Snow,Light Snow,130,2013-02-07 17:14:00
12:34 PM,30.2,24.6,80,30.06,1.8,SE,9.2,-,N/A,Snow,Light Snow,130,2013-02-07 17:34:00
12:54 PM,30.2,24.6,80,30.05,2.5,ESE,8.1,-,N/A,Snow,Light Snow,120,2013-02-07 17:54:00
1:14 PM,30.2,24.8,80,30.04,2.0,SE,6.9,-,N/A,Snow,Light Snow,130,2013-02-07 18:14:00
1:34 PM,30.2,25.3,82,30.03,1.2,ESE,8.1,-,N/A,Snow,Light Snow,110,2013-02-07 18:34:00
1:54 PM,29.8,25.7,85,30.01,0.8,ESE,8.1,-,N/A,Snow,Light Snow,110,2013-02-07 18:54:00
2:15 PM,30.2,26.6,86,30.01,1.0,ESE,6.9,-,N/A,Snow,Light Snow,120,2013-02-07 19:15:00
2:34 PM,30.0,26.4,86,30.00,0.8,East,5.8,-,N/A,Snow,Light Snow,100,2013-02-07 19:34:00
2:54 PM,29.8,27.1,90,30.00,0.8,ESE,4.6,-,N/A,Snow,Light Snow,110,2013-02-07 19:54:00
3:14 PM,29.7,27.3,91,29.99,0.5,ESE,3.5,-,N/A,Snow,Light Snow,110,2013-02-07 20:14:00
3:34 PM,29.7,27.3,91,29.99,0.8,East,4.6,-,N/A,Snow,Light Snow,90,2013-02-07 20:34:00
3:54 PM,29.7,27.5,92,29.99,0.8,East,3.5,-,N/A,Snow,Light Snow,90,2013-02-07 20:54:00
4:14 PM,29.3,26.6,90,29.98,0.5,East,6.9,-,N/A,Snow,Snow,80,2013-02-07 21:14:00
4:34 PM,28.9,26.4,90,29.98,0.8,East,6.9,-,N/A,Snow,Light Snow,100,2013-02-07 21:34:00
4:54 PM,28.8,26.4,91,29.97,0.8,East,3.5,-,N/A,Snow,Light Snow,90,2013-02-07 21:54:00
5:14 PM,28.8,26.2,90,29.96,1.0,East,6.9,-,N/A,Snow,Light Snow,90,2013-02-07 22:14:00
5:34 PM,28.4,25.7,90,29.96,0.5,East,6.9,-,N/A,Snow,Light Snow,80,2013-02-07 22:34:00
5:54 PM,28.4,25.7,90,29.95,0.8,East,5.8,-,N/A,Snow,Light Snow,80,2013-02-07 22:54:00
6:14 PM,28.4,26.2,92,29.95,0.5,ENE,3.5,-,N/A,Snow,Snow,60,2013-02-07 23:14:00
6:34 PM,28.4,26.4,92,29.95,1.2,Calm,Calm,-,N/A,Snow,Light Snow,0,2013-02-07 23:34:00
6:54 PM,28.6,26.6,92,29.94,1.2,NE,3.5,-,N/A,Snow,Light Snow,50,2013-02-07 23:54:00
7:14 PM,28.4,26.6,93,29.94,1.0,Calm,Calm,-,N/A,Snow,Snow,0,2013-02-08 00:14:00
7:34 PM,28.6,27.1,94,29.94,1.0,ENE,3.5,-,N/A,Snow,Snow,70,2013-02-08 00:34:00
7:54 PM,28.8,27.1,94,29.94,1.0,ENE,3.5,-,N/A,Snow,Snow,60,2013-02-08 00:54:00
8:14 PM,28.8,27.1,94,29.94,0.5,East,3.5,-,N/A,Snow,Snow,90,2013-02-08 01:14:00
8:34 PM,28.9,27.3,94,29.93,1.2,ENE,4.6,-,N/A,Snow,Snow,70,2013-02-08 01:34:00
8:54 PM,28.8,27.1,94,29.93,1.0,ENE,3.5,-,N/A,Snow,Snow,60,2013-02-08 01:54:00
9:14 PM,28.9,27.1,93,29.93,0.5,Calm,Calm,-,N/A,Snow,Snow,0,2013-02-08 02:14:00
9:34 PM,28.8,27.1,94,29.93,0.8,East,3.5,-,N/A,Snow,Snow,80,2013-02-08 02:34:00
9:55 PM,28.8,27.1,94,29.93,1.0,NE,3.5,-,N/A,Snow,Snow,50,2013-02-08 02:55:00
10:14 PM,28.6,26.8,93,29.93,0.5,ENE,3.5,-,N/A,Snow,Snow,60,2013-02-08 03:14:00
10:34 PM,28.4,26.6,93,29.92,0.8,NE,3.5,-,N/A,Snow,Snow,50,2013-02-08 03:34:00
10:54 PM,28.4,26.6,93,29.92,1.2,NE,4.6,-,N/A,Snow,Light Snow,40,2013-02-08 03:54:00
11:14 PM,28.4,26.6,93,29.91,1.5,NE,4.6,-,N/A,Snow,Light Snow,50,2013-02-08 04:14:00
11:34 PM,28.2,26.6,94,29.91,1.8,NE,5.8,-,N/A,Snow,Light Snow,50,2013-02-08 04:34:00
11:54 PM,28.0,26.4,94,29.90,1.5,NNE,5.8,-,N/A,Snow,Light Snow,30,2013-02-08 04:54:00